Other Public Products
Issued by NWS Charleston, SC

Home | Current Version | Previous Version | Text Only | Print | Product List | Glossary On
Versions: 1 2 3 4 5 6 7 8 9 10 11 12 13 14 15 16 17 18 19 20 21 22 23 24 25 26 27 28 29 30 31 32 33 34 35 36 37 38 39 40 41 42 43 44 45 46 47 48 49 50
018
FPUS82 KCHS 272327
OPUCHS

TEST...KCHS/KSAV Gateway Observations...TEST
National Weather Service Charleston SC
700 PM EDT MON MAR 27 2017

NOTE: "fair" indicates few or no clouds below 12,000 feet with no
significant weather and/or obstructions to visibility.

SCZ050-WAZ558-NCZ071-TXZ119-213-PAZ071-DCZ001-FLZ074-172-MI076-
NYZ176-178-MAZ016-IL014-TNZ027-NJZ106-GAZ044-MD014-280000-

...Gateway Observations for Charleston International...

CITY           SKY/WX    TMP DP  RH WIND       PRES   REMARKS
Chas Airport   MOCLDY    72  57  59 S12       30.02F
Seattle        CLOUDY    49  44  83 W8        30.18R
Charlotte      MOCLDY    77  56  48 S12       29.96F
Dallas DFW     SUNNY     72  55  55 NE7       29.85F
Dallas Love    MOSUNNY   73  52  47 E3        29.85F
Philladelphia  MOCLDY    58  52  80 E3        29.97S
Wash National  MOCLDY    69  56  62 E14       29.91F
Baltimore      MOCLDY    63  55  75 E7        29.93S
Miami          PTCLDY    76  58  53 NE10      30.00S
Detroit        CLOUDY    60  49  66 W8        29.89S
Newark         MOCLDY    55  48  77 SW6       29.98S
Laguardia      MOCLDY    49  43  80 NE7       29.99R
J F K          MOCLDY    55  50  83 SW9       30.00R
Boston Logan   CLOUDY    42  41  96 N10       30.01R
Ft. Lauderdale PTCLDY    75  57  53 E9        30.00S
Chicago O`Hare CLOUDY    46  41  82 NE9       29.90S
Chicago Midway CLOUDY    44  41  89 NE9       29.91S
Houston Bush   MOSUNNY   83  65  54 S14       29.82F
Houston Hobby  MOSUNNY   80  67  64 SE14G23   29.83S
Nashville      CLOUDY    64  58  80 NE10      29.86F
Atlanta        PTSUNNY   77  55  46 SW12      29.94F

$$

GAZ044-118-TXZ119-213-NCZ071-DCZ001-MDZ014-506-PAZ021-071-NJZ106-
NYZ176-178-MAZ106-OHZ011-021-055-MIZ076-KYZ091-ILZ014-INZ047-
MNZ060-ONZ431-280000-

...Gateway Observations for Savannah International...

CITY           SKY/WX    TMP DP  RH WIND       PRES   REMARKS
Savannah Arpt  MOCLDY    73  57  57 SE10      30.01F
Atlanta        PTSUNNY   77  55  46 SW12      29.94F
Charlotte      MOCLDY    77  56  48 S12       29.96F
Dallas DFW     SUNNY     72  55  55 NE7       29.85F
Houston Bush   MOSUNNY   83  65  54 S14       29.82F
Wash National  MOCLDY    69  56  62 E14       29.91F
Wash Dulles    MOCLDY    72  55  55 SE5       29.91S
Baltimore      MOCLDY    63  55  75 E7        29.93S
Philadelphia   MOCLDY    58  52  80 E3        29.97S
Newark         MOCLDY    55  48  77 SW6       29.98S
Laguardia      MOCLDY    49  43  80 NE7       29.99R
J F K          MOCLDY    55  50  83 SW9       30.00R
Boston         CLOUDY    42  41  96 N10       30.01R
Pittsburg      CLOUDY    67  48  50 SW7       29.89F
Akron          CLOUDY    63  48  58 NW5       29.89F
Cleveland      MOCLDY    58  47  66 NE6       29.92S
Cincinnati     CLOUDY    67  56  67 SE9       29.83F
Columbus       CLOUDY    62  54  74 NE3       29.87S
Detroit        CLOUDY    60  49  66 W8        29.89S
Chicago O`Hare CLOUDY    46  41  82 NE9       29.90S
Minneapolis    MOSUNNY   56  33  42 SE7       29.94S
Indianapolis   CLOUDY    60  53  77 E9        29.81F
Toronto Canada MOCLDY    55  52  88 W7        29.87S

$$




USA.gov is the U.S. government's official web portal to all federal, state and local government web resources and services.